IRIDIUM 11 [-] (25578 NORAD) Tracking and Keplerian Element Data

This shows tracking and keplerian element data for the satellite.

Feedback or suggestion? Click here.




ElementValue
Catalog25578
NameIRIDIUM 11 [-]
Epoch Orbit4823
Epoch Day295.22392449
Epoch Year2018
RAAN48.297
Inclination86.4017
Eccentricity0.0080065
Argument of Perigee282.3352
Mean Anonmoly77.0276
Mean Motion16.37044354
Decay Rate0.12158264
L11 25578U 98074B 18295.22392449 .12158264 -12312-5 18093-3 0 9993
L22 25578 86.4017 48.2970 0080065 282.3352 77.0276 16.37044354 48232



Live tracking and technical data element details for IRIDIUM 11 [-] (NORAD 25578). IRIDIUM 11 [-] can be tracked NOW for your location showing map with azimuth and elevation plus other details from your city location.







IsCatalogInMostPopularTable: catalog: 25578, numindb: 495
Update: records affected: 1



GetName: 25578 IRIDIUM 11 [-]

Hit Count: updated at: Mon, 18 May 2026 08:43:26 GMT